QPF
0.00 0.00 0.01 0.01 0.00 0.00 0.00 0.00 0.00 0.00 0.01 0.02 0.03 0.02 0.01 0.00 0.00 0.01 0.01 0.01 0.02 0.03 0.03 0.04 0.03 0.02 0.01 0.01 0.01 0.01 0.02 0.03 0.03 0.03 0.03 0.03 0.03 0.03 0.04 0.04 0.04 0.05 0.05 0.04
0.00 0.00 0.00 0.01 0.00 0.00 0.00 0.00 0.00 0.00 0.00 0.00 0.00 0.01 0.01 0.00 0.00 0.02 0.03 0.02 0.02 0.02 0.01 0.02 0.02 0.01 0.01 0.01 0.02 0.03 0.04 0.03 0.03 0.02 0.03 0.03 0.03 0.03 0.04 0.05 0.05 0.05 0.05 0.04
0.00 0.00 0.00 0.01 0.01 0.00 0.00 0.00 0.00 0.00 0.01 0.00 0.00 0.02 0.02 0.00 0.00 0.01 0.03 0.02 0.02 0.02 0.02 0.01 0.02 0.02 0.02 0.02 0.03 0.04 0.04 0.04 0.03 0.02 0.02 0.02 0.02 0.02 0.04 0.05 0.06 0.06 0.05 0.05
0.00 0.00 0.00 0.00 0.01 0.00 0.00 0.00 0.00 0.00 0.00 0.00 0.00 0.01 0.02 0.01 0.01 0.01 0.01 0.02 0.02 0.02 0.02 0.01 0.01 0.02 0.02 0.03 0.03 0.04 0.04 0.04 0.04 0.02 0.02 0.02 0.02 0.03 0.05 0.06 0.06 0.06 0.06 0.06
0.00 0.01 0.01 0.01 0.01 0.01 0.01 0.01 0.02 0.01 0.00 0.00 0.00 0.00 0.01 0.04 0.02 0.01 0.04 0.06 0.06 0.04 0.03 0.01 0.01 0.02 0.02 0.03 0.03 0.04 0.03 0.04 0.04 0.03 0.03 0.04 0.04 0.04 0.05 0.06 0.07 0.08 0.09 0.10
0.00 0.00 0.01 0.02 0.01 0.01 0.01 0.02 0.02 0.02 0.01 0.00 0.00 0.01 0.01 0.02 0.03 0.01 0.02 0.06 0.07 0.05 0.03 0.02 0.01 0.02 0.02 0.03 0.04 0.05 0.04 0.05 0.06 0.06 0.05 0.05 0.04 0.05 0.06 0.07 0.09 0.13 0.15 0.15
0.00 0.00 0.01 0.01 0.02 0.01 0.03 0.07 0.05 0.04 0.03 0.01 0.01 0.01 0.01 0.01 0.03 0.03 0.02 0.02 0.04 0.04 0.02 0.02 0.01 0.01 0.02 0.02 0.04 0.07 0.07 0.07 0.09 0.10 0.08 0.07 0.06 0.06 0.06 0.07 0.10 0.13 0.14 0.13
0.01 0.02 0.02 0.01 0.01 0.02 0.03 0.04 0.10 0.10 0.07 0.03 0.01 0.01 0.01 0.02 0.07 0.08 0.03 0.01 0.01 0.02 0.01 0.01 0.01 0.01 0.02 0.03 0.04 0.05 0.06 0.07 0.08 0.11 0.08 0.07 0.09 0.09 0.08 0.07 0.08 0.08 0.08 0.08
0.01 0.02 0.02 0.02 0.02 0.02 0.02 0.04 0.08 0.11 0.08 0.05 0.03 0.01 0.01 0.02 0.05 0.07 0.04 0.02 0.02 0.02 0.01 0.01 0.01 0.02 0.03 0.03 0.04 0.04 0.04 0.05 0.08 0.09 0.09 0.10 0.11 0.10 0.09 0.07 0.06 0.07 0.08 0.08
0.01 0.01 0.01 0.01 0.02 0.03 0.05 0.06 0.08 0.13 0.10 0.03 0.01 0.01 0.01 0.01 0.01 0.02 0.02 0.01 0.01 0.01 0.01 0.02 0.02 0.01 0.02 0.04 0.05 0.05 0.04 0.05 0.07 0.08 0.10 0.11 0.11 0.08 0.06 0.06 0.08 0.09 0.10 0.10
0.01 0.01 0.01 0.01 0.01 0.02 0.06 0.07 0.09 0.08 0.05 0.01 0.01 0.02 0.02 0.02 0.02 0.01 0.00 0.00 0.00 0.01 0.01 0.03 0.05 0.04 0.02 0.04 0.06 0.06 0.06 0.06 0.06 0.07 0.08 0.10 0.10 0.09 0.07 0.07 0.08 0.09 0.09 0.09
0.03 0.02 0.01 0.01 0.01 0.02 0.02 0.01 0.01 0.01 0.02 0.01 0.01 0.02 0.02 0.01 0.01 0.01 0.01 0.00 0.01 0.01 0.01 0.02 0.02 0.03 0.06 0.06 0.06 0.07 0.07 0.06 0.06 0.07 0.08 0.09 0.10 0.11 0.09 0.07 0.07 0.06 0.06 0.06
0.01 0.01 0.01 0.02 0.02 0.02 0.02 0.01 0.00 0.00 0.00 0.00 0.01 0.01 0.01 0.01 0.01 0.02 0.02 0.02 0.02 0.02 0.02 0.02 0.03 0.05 0.06 0.06 0.05 0.06 0.07 0.06 0.06 0.06 0.06 0.07 0.07 0.06 0.06 0.07 0.07 0.08 0.08 0.07
0.02 0.02 0.03 0.03 0.04 0.04 0.04 0.02 0.01 0.01 0.01 0.01 0.01 0.01 0.01 0.02 0.02 0.02 0.02 0.02 0.02 0.03 0.03 0.04 0.05 0.06 0.05 0.05 0.05 0.06 0.06 0.07 0.07 0.07 0.06 0.06 0.05 0.04 0.05 0.06 0.06 0.07 0.07 0.07
0.03 0.04 0.05 0.06 0.05 0.04 0.04 0.04 0.03 0.02 0.03 0.03 0.02 0.02 0.02 0.03 0.03 0.03 0.03 0.03 0.04 0.05 0.05 0.05 0.05 0.04 0.04 0.05 0.06 0.09 0.09 0.09 0.08 0.08 0.08 0.07 0.05 0.05 0.05 0.06 0.06 0.06 0.06 0.06
0.02 0.05 0.06 0.07 0.07 0.07 0.06 0.05 0.04 0.04 0.04 0.03 0.02 0.02 0.03 0.06 0.05 0.04 0.04 0.05 0.05 0.05 0.05 0.04 0.04 0.04 0.04 0.04 0.06 0.10 0.12 0.12 0.10 0.08 0.07 0.06 0.06 0.05 0.06 0.06 0.06 0.05 0.05 0.05
0.02 0.03 0.04 0.05 0.06 0.07 0.05 0.04 0.04 0.03 0.04 0.03 0.03 0.03 0.04 0.06 0.08 0.07 0.05 0.06 0.06 0.06 0.05 0.04 0.04 0.04 0.04 0.05 0.06 0.08 0.09 0.09 0.08 0.07 0.05 0.05 0.06 0.06 0.07 0.07 0.06 0.05 0.04 0.04
0.04 0.03 0.04 0.05 0.05 0.06 0.05 0.05 0.06 0.04 0.04 0.03 0.03 0.03 0.04 0.07 0.10 0.09 0.07 0.06 0.06 0.06 0.06 0.05 0.04 0.03 0.03 0.04 0.05 0.06 0.05 0.05 0.05 0.04 0.04 0.05 0.07 0.07 0.07 0.06 0.06 0.06 0.05 0.04
0.04 0.04 0.04 0.04 0.04 0.04 0.04 0.06 0.06 0.05 0.05 0.04 0.04 0.05 0.07 0.09 0.10 0.10 0.09 0.07 0.07 0.06 0.05 0.05 0.04 0.03 0.03 0.03 0.04 0.06 0.05 0.06 0.07 0.06 0.05 0.05 0.06 0.07 0.08 0.09 0.09 0.09 0.07 0.06
0.03 0.05 0.04 0.04 0.03 0.03 0.04 0.05 0.05 0.05 0.05 0.05 0.06 0.08 0.09 0.09 0.11 0.12 0.10 0.08 0.07 0.05 0.04 0.05 0.04 0.03 0.04 0.04 0.03 0.04 0.05 0.06 0.06 0.06 0.05 0.05 0.05 0.06 0.06 0.07 0.08 0.07 0.06 0.05
0.02 0.03 0.04 0.04 0.04 0.04 0.05 0.06 0.06 0.06 0.08 0.08 0.09 0.09 0.08 0.08 0.10 0.12 0.10 0.07 0.05 0.04 0.03 0.04 0.04 0.04 0.05 0.06 0.04 0.04 0.04 0.06 0.07 0.08 0.08 0.07 0.05 0.04 0.04 0.04 0.04 0.04 0.04 0.03
0.03 0.02 0.02 0.02 0.03 0.05 0.07 0.09 0.08 0.08 0.09 0.08 0.07 0.06 0.06 0.07 0.07 0.08 0.08 0.07 0.05 0.03 0.03 0.03 0.04 0.05 0.06 0.07 0.06 0.05 0.05 0.06 0.07 0.08 0.07 0.06 0.05 0.05 0.04 0.05 0.06 0.05 0.04 0.04
0.04 0.03 0.03 0.04 0.06 0.07 0.07 0.07 0.07 0.08 0.08 0.07 0.06 0.06 0.06 0.06 0.05 0.05 0.05 0.04 0.03 0.03 0.03 0.04 0.05 0.06 0.07 0.08 0.08 0.08 0.09 0.08 0.07 0.07 0.07 0.07 0.07 0.07 0.06 0.06 0.06 0.06 0.06 0.06
0.05 0.05 0.07 0.08 0.07 0.06 0.07 0.07 0.06 0.06 0.06 0.05 0.04 0.05 0.04 0.04 0.04 0.03 0.03 0.02 0.02 0.02 0.03 0.04 0.05 0.06 0.07 0.07 0.08 0.08 0.07 0.08 0.09 0.08 0.07 0.07 0.07 0.06 0.06 0.06 0.06 0.06 0.05 0.05
0.06 0.07 0.07 0.07 0.06 0.06 0.06 0.06 0.05 0.04 0.04 0.03 0.02 0.02 0.02 0.02 0.03 0.03 0.02 0.02 0.02 0.02 0.02 0.03 0.02 0.04 0.05 0.06 0.06 0.06 0.06 0.06 0.08 0.08 0.06 0.05 0.05 0.05 0.05 0.05 0.05 0.05 0.05 0.04
0.06 0.07 0.06 0.05 0.04 0.06 0.07 0.05 0.04 0.03 0.03 0.04 0.03 0.03 0.02 0.02 0.01 0.02 0.02 0.02 0.01 0.01 0.02 0.01 0.01 0.02 0.02 0.03 0.04 0.05 0.05 0.06 0.08 0.07 0.05 0.05 0.05 0.05 0.05 0.04 0.04 0.04 0.04 0.03
0.04 0.05 0.05 0.03 0.02 0.04 0.05 0.05 0.04 0.04 0.03 0.03 0.04 0.04 0.04 0.03 0.02 0.02 0.02 0.02 0.02 0.02 0.02 0.01 0.01 0.02 0.02 0.03 0.03 0.03 0.04 0.04 0.06 0.07 0.06 0.07 0.07 0.07 0.06 0.05 0.05 0.05 0.05 0.05
MSLP
1005.42 1004.91 1004.46 1004.15 1004.03 1004.10 1004.35 1004.73 1005.15 1005.54 1005.85 1006.01 1006.01 1005.86 1005.60 1005.27 1004.93 1004.61 1004.36 1004.18 1004.08 1004.05 1004.07 1004.15 1004.26 1004.42 1004.63 1004.89 1005.21 1005.60 1006.03 1006.49 1006.96 1007.41 1007.82 1008.17 1008.47 1008.70 1008.89 1009.06 1009.22 1009.38 1009.57 1009.78
1006.04 1005.51 1005.01 1004.61 1004.37 1004.34 1004.51 1004.84 1005.29 1005.78 1006.25 1006.63 1006.88 1006.98 1006.95 1006.79 1006.55 1006.26 1005.95 1005.65 1005.37 1005.14 1004.94 1004.80 1004.70 1004.67 1004.70 1004.80 1004.99 1005.25 1005.58 1005.96 1006.38 1006.81 1007.23 1007.62 1007.97 1008.28 1008.55 1008.78 1008.99 1009.19 1009.39 1009.59
1006.70 1006.23 1005.76 1005.37 1005.11 1005.04 1005.17 1005.48 1005.94 1006.49 1007.04 1007.56 1007.96 1008.22 1008.32 1008.27 1008.09 1007.80 1007.45 1007.04 1006.63 1006.23 1005.85 1005.51 1005.23 1005.02 1004.88 1004.82 1004.86 1004.98 1005.20 1005.48 1005.83 1006.23 1006.64 1007.06 1007.46 1007.83 1008.17 1008.47 1008.74 1008.97 1009.18 1009.37
1007.38 1007.04 1006.68 1006.37 1006.16 1006.11 1006.24 1006.54 1006.99 1007.53 1008.10 1008.64 1009.09 1009.41 1009.57 1009.56 1009.39 1009.09 1008.69 1008.22 1007.72 1007.20 1006.70 1006.24 1005.82 1005.46 1005.17 1004.97 1004.86 1004.85 1004.93 1005.11 1005.38 1005.71 1006.10 1006.52 1006.95 1007.37 1007.77 1008.12 1008.43 1008.69 1008.90 1009.09
1008.07 1007.89 1007.68 1007.50 1007.39 1007.39 1007.53 1007.82 1008.22 1008.70 1009.22 1009.71 1010.11 1010.39 1010.52 1010.50 1010.32 1010.01 1009.59 1009.09 1008.55 1008.00 1007.44 1006.91 1006.42 1005.97 1005.58 1005.26 1005.02 1004.88 1004.83 1004.89 1005.06 1005.32 1005.66 1006.06 1006.49 1006.93 1007.35 1007.74 1008.07 1008.35 1008.57 1008.75
1008.74 1008.72 1008.67 1008.63 1008.63 1008.70 1008.85 1009.10 1009.43 1009.82 1010.21 1010.58 1010.87 1011.05 1011.11 1011.03 1010.83 1010.51 1010.10 1009.62 1009.10 1008.57 1008.03 1007.50 1006.99 1006.50 1006.05 1005.64 1005.31 1005.05 1004.88 1004.82 1004.88 1005.05 1005.32 1005.68 1006.09 1006.52 1006.95 1007.35 1007.70 1007.98 1008.20 1008.38
1009.37 1009.48 1009.58 1009.66 1009.75 1009.87 1010.03 1010.23 1010.46 1010.71 1010.95 1011.16 1011.30 1011.35 1011.31 1011.16 1010.93 1010.61 1010.24 1009.82 1009.37 1008.91 1008.44 1007.96 1007.47 1006.99 1006.52 1006.06 1005.65 1005.30 1005.03 1004.87 1004.82 1004.90 1005.10 1005.40 1005.76 1006.17 1006.59 1006.98 1007.33 1007.62 1007.85 1008.03
1009.93 1010.13 1010.32 1010.50 1010.65 1010.80 1010.94 1011.07 1011.20 1011.30 1011.38 1011.42 1011.39 1011.31 1011.16 1010.95 1010.69 1010.40 1010.07 1009.73 1009.38 1009.02 1008.64 1008.25 1007.82 1007.37 1006.90 1006.42 1005.96 1005.54 1005.19 1004.94 1004.81 1004.81 1004.94 1005.18 1005.50 1005.88 1006.28 1006.66 1007.01 1007.30 1007.54 1007.75
1010.39 1010.64 1010.88 1011.10 1011.29 1011.43 1011.54 1011.60 1011.62 1011.59 1011.51 1011.39 1011.22 1011.01 1010.77 1010.51 1010.24 1009.97 1009.70 1009.45 1009.20 1008.94 1008.66 1008.35 1007.99 1007.58 1007.12 1006.64 1006.15 1005.68 1005.28 1004.97 1004.78 1004.72 1004.79 1004.99 1005.28 1005.64 1006.02 1006.40 1006.75 1007.06 1007.33 1007.56
1010.74 1010.99 1011.25 1011.48 1011.66 1011.79 1011.85 1011.84 1011.76 1011.61 1011.41 1011.16 1010.88 1010.57 1010.27 1009.97 1009.69 1009.45 1009.23 1009.05 1008.88 1008.70 1008.50 1008.25 1007.94 1007.57 1007.13 1006.64 1006.14 1005.65 1005.22 1004.88 1004.66 1004.57 1004.62 1004.80 1005.08 1005.43 1005.82 1006.21 1006.58 1006.91 1007.21 1007.48
1010.99 1011.22 1011.45 1011.66 1011.82 1011.91 1011.92 1011.84 1011.69 1011.46 1011.17 1010.83 1010.47 1010.10 1009.75 1009.43 1009.16 1008.93 1008.75 1008.61 1008.49 1008.36 1008.20 1007.99 1007.70 1007.34 1006.91 1006.43 1005.92 1005.43 1005.00 1004.66 1004.43 1004.35 1004.41 1004.60 1004.90 1005.27 1005.68 1006.09 1006.49 1006.86 1007.18 1007.49
1011.15 1011.33 1011.52 1011.69 1011.81 1011.85 1011.82 1011.70 1011.49 1011.21 1010.87 1010.49 1010.08 1009.68 1009.31 1008.98 1008.71 1008.49 1008.33 1008.20 1008.09 1007.97 1007.82 1007.61 1007.32 1006.96 1006.53 1006.04 1005.54 1005.06 1004.65 1004.33 1004.13 1004.08 1004.18 1004.40 1004.74 1005.15 1005.59 1006.04 1006.48 1006.88 1007.24 1007.56
1011.24 1011.38 1011.52 1011.63 1011.70 1011.70 1011.63 1011.47 1011.24 1010.93 1010.57 1010.17 1009.75 1009.35 1008.97 1008.65 1008.37 1008.16 1007.99 1007.86 1007.74 1007.60 1007.43 1007.19 1006.89 1006.51 1006.07 1005.59 1005.10 1004.64 1004.25 1003.97 1003.81 1003.81 1003.95 1004.23 1004.61 1005.07 1005.56 1006.05 1006.52 1006.95 1007.33 1007.67
1011.29 1011.38 1011.46 1011.52 1011.54 1011.50 1011.39 1011.21 1010.95 1010.64 1010.28 1009.88 1009.48 1009.09 1008.73 1008.41 1008.14 1007.92 1007.74 1007.59 1007.45 1007.28 1007.08 1006.82 1006.49 1006.09 1005.64 1005.16 1004.69 1004.26 1003.90 1003.66 1003.56 1003.60 1003.79 1004.12 1004.54 1005.04 1005.57 1006.10 1006.59 1007.05 1007.44 1007.78
1011.32 1011.35 1011.38 1011.38 1011.35 1011.26 1011.12 1010.91 1010.65 1010.34 1009.99 1009.62 1009.24 1008.87 1008.53 1008.23 1007.97 1007.75 1007.56 1007.40 1007.23 1007.04 1006.81 1006.53 1006.18 1005.78 1005.33 1004.87 1004.41 1004.01 1003.69 1003.48 1003.41 1003.49 1003.72 1004.07 1004.53 1005.05 1005.60 1006.15 1006.66 1007.12 1007.52 1007.84
1011.32 1011.30 1011.27 1011.22 1011.13 1011.00 1010.82 1010.60 1010.33 1010.02 1009.69 1009.34 1008.99 1008.65 1008.33 1008.05 1007.81 1007.60 1007.42 1007.24 1007.07 1006.87 1006.63 1006.34 1006.00 1005.60 1005.17 1004.73 1004.30 1003.92 1003.63 1003.45 1003.40 1003.49 1003.72 1004.08 1004.54 1005.06 1005.62 1006.17 1006.68 1007.14 1007.53 1007.85
1011.31 1011.23 1011.14 1011.02 1010.88 1010.70 1010.49 1010.25 1009.97 1009.67 1009.35 1009.02 1008.70 1008.39 1008.11 1007.85 1007.63 1007.44 1007.27 1007.10 1006.94 1006.75 1006.52 1006.25 1005.92 1005.56 1005.15 1004.74 1004.33 1003.98 1003.70 1003.52 1003.47 1003.55 1003.77 1004.10 1004.53 1005.03 1005.56 1006.10 1006.60 1007.05 1007.44 1007.75
1011.26 1011.13 1010.97 1010.80 1010.60 1010.38 1010.14 1009.87 1009.59 1009.29 1008.98 1008.67 1008.37 1008.09 1007.84 1007.61 1007.41 1007.24 1007.09 1006.95 1006.80 1006.64 1006.44 1006.20 1005.91 1005.57 1005.21 1004.82 1004.45 1004.11 1003.83 1003.64 1003.57 1003.61 1003.78 1004.06 1004.44 1004.89 1005.39 1005.89 1006.37 1006.81 1007.20 1007.51
1011.16 1010.97 1010.77 1010.54 1010.30 1010.04 1009.76 1009.48 1009.18 1008.88 1008.59 1008.30 1008.02 1007.76 1007.53 1007.33 1007.15 1007.00 1006.87 1006.75 1006.63 1006.50 1006.33 1006.13 1005.88 1005.58 1005.25 1004.89 1004.54 1004.20 1003.92 1003.71 1003.59 1003.58 1003.68 1003.90 1004.21 1004.60 1005.03 1005.50 1005.95 1006.39 1006.78 1007.11
1011.01 1010.78 1010.53 1010.26 1009.97 1009.68 1009.38 1009.08 1008.79 1008.49 1008.20 1007.93 1007.67 1007.43 1007.22 1007.03 1006.87 1006.74 1006.62 1006.52 1006.42 1006.30 1006.16 1005.99 1005.77 1005.50 1005.20 1004.87 1004.52 1004.19 1003.88 1003.64 1003.48 1003.40 1003.44 1003.58 1003.81 1004.13 1004.51 1004.93 1005.36 1005.78 1006.18 1006.55
1010.83 1010.56 1010.27 1009.96 1009.66 1009.34 1009.03 1008.73 1008.43 1008.14 1007.87 1007.61 1007.36 1007.14 1006.94 1006.76 1006.61 1006.48 1006.36 1006.26 1006.16 1006.05 1005.92 1005.75 1005.55 1005.30 1005.01 1004.69 1004.35 1004.01 1003.69 1003.41 1003.20 1003.07 1003.04 1003.11 1003.28 1003.53 1003.85 1004.22 1004.63 1005.05 1005.46 1005.86
1010.64 1010.34 1010.02 1009.70 1009.37 1009.05 1008.73 1008.43 1008.14 1007.86 1007.60 1007.36 1007.13 1006.91 1006.72 1006.54 1006.38 1006.24 1006.11 1005.99 1005.87 1005.75 1005.60 1005.43 1005.22 1004.97 1004.69 1004.37 1004.02 1003.68 1003.34 1003.04 1002.80 1002.63 1002.54 1002.56 1002.66 1002.86 1003.14 1003.47 1003.85 1004.27 1004.69 1005.12
1010.48 1010.16 1009.83 1009.49 1009.15 1008.82 1008.51 1008.21 1007.93 1007.67 1007.43 1007.19 1006.98 1006.77 1006.57 1006.39 1006.21 1006.04 1005.89 1005.73 1005.58 1005.42 1005.24 1005.05 1004.82 1004.56 1004.26 1003.94 1003.60 1003.25 1002.91 1002.60 1002.34 1002.15 1002.03 1002.01 1002.08 1002.24 1002.48 1002.78 1003.14 1003.54 1003.97 1004.41
1010.37 1010.04 1009.70 1009.36 1009.02 1008.69 1008.38 1008.09 1007.82 1007.57 1007.34 1007.12 1006.91 1006.71 1006.50 1006.30 1006.10 1005.90 1005.71 1005.51 1005.31 1005.10 1004.88 1004.65 1004.39 1004.11 1003.81 1003.48 1003.14 1002.80 1002.48 1002.18 1001.92 1001.73 1001.61 1001.58 1001.63 1001.77 1001.99 1002.27 1002.61 1003.00 1003.41 1003.85
1010.35 1010.01 1009.67 1009.32 1008.97 1008.65 1008.34 1008.06 1007.80 1007.56 1007.34 1007.13 1006.92 1006.71 1006.50 1006.28 1006.05 1005.81 1005.57 1005.33 1005.08 1004.82 1004.56 1004.29 1004.00 1003.71 1003.40 1003.08 1002.75 1002.44 1002.14 1001.87 1001.64 1001.47 1001.37 1001.35 1001.41 1001.54 1001.75 1002.02 1002.34 1002.71 1003.11 1003.53
1010.39 1010.05 1009.71 1009.36 1009.01 1008.69 1008.39 1008.11 1007.86 1007.63 1007.41 1007.20 1006.99 1006.77 1006.54 1006.29 1006.04 1005.76 1005.48 1005.19 1004.90 1004.60 1004.30 1004.00 1003.70 1003.40 1003.09 1002.79 1002.50 1002.22 1001.96 1001.73 1001.55 1001.43 1001.36 1001.37 1001.45 1001.59 1001.80 1002.06 1002.37 1002.72 1003.10 1003.50
1010.46 1010.14 1009.79 1009.45 1009.11 1008.79 1008.50 1008.22 1007.98 1007.75 1007.53 1007.31 1007.09 1006.86 1006.61 1006.34 1006.05 1005.74 1005.42 1005.10 1004.77 1004.45 1004.12 1003.81 1003.51 1003.21 1002.93 1002.66 1002.40 1002.17 1001.97 1001.80 1001.67 1001.60 1001.58 1001.63 1001.73 1001.90 1002.11 1002.38 1002.68 1003.01 1003.37 1003.74
Thickness
5793 5807 5812 5812 5815 5819 5815 5813 5808 5812 5815 5817 5821 5823 5825 5829 5830 5829 5828 5826 5825 5823 5821 5821 5821 5822 5821 5819 5817 5815 5810 5806 5803 5801 5798 5795 5791 5788 5785 5783 5780 5776 5773 5770
5778 5796 5803 5803 5811 5816 5815 5816 5815 5811 5807 5820 5822 5817 5816 5818 5818 5814 5813 5813 5814 5815 5816 5814 5813 5813 5813 5811 5810 5809 5804 5801 5800 5797 5793 5790 5787 5785 5781 5778 5776 5773 5769 5767
5758 5781 5786 5780 5802 5808 5810 5815 5811 5799 5801 5809 5803 5800 5799 5803 5804 5801 5803 5804 5804 5804 5805 5805 5805 5804 5804 5804 5804 5801 5798 5796 5794 5791 5788 5786 5785 5781 5777 5774 5771 5768 5766 5763
5751 5757 5742 5782 5811 5810 5802 5804 5808 5804 5801 5798 5795 5795 5797 5797 5794 5793 5795 5794 5793 5796 5796 5797 5797 5798 5797 5797 5795 5792 5790 5787 5786 5784 5782 5781 5778 5776 5773 5771 5767 5764 5761 5759
5742 5740 5750 5776 5788 5789 5781 5781 5794 5791 5789 5789 5790 5785 5781 5786 5785 5784 5784 5783 5784 5787 5788 5788 5787 5789 5788 5785 5783 5781 5780 5778 5778 5777 5775 5772 5770 5769 5768 5765 5762 5759 5756 5753
5735 5728 5728 5752 5773 5783 5774 5755 5771 5774 5772 5774 5773 5763 5761 5773 5774 5774 5774 5774 5773 5774 5776 5775 5776 5778 5776 5774 5771 5769 5770 5770 5770 5770 5767 5764 5763 5762 5761 5758 5755 5753 5750 5748
5726 5725 5733 5752 5765 5765 5735 5729 5751 5757 5757 5760 5758 5757 5760 5764 5763 5763 5761 5762 5763 5763 5762 5764 5766 5767 5763 5762 5760 5762 5763 5762 5762 5759 5759 5758 5756 5754 5752 5750 5747 5745 5743 5741
5720 5714 5715 5741 5745 5732 5726 5736 5739 5742 5744 5746 5748 5750 5751 5751 5750 5749 5748 5750 5751 5750 5750 5754 5755 5754 5751 5749 5752 5754 5753 5752 5751 5750 5751 5751 5747 5745 5744 5741 5738 5736 5734 5732
5710 5710 5722 5733 5730 5730 5733 5729 5730 5731 5735 5735 5734 5734 5736 5736 5736 5736 5737 5738 5740 5740 5739 5741 5743 5742 5739 5741 5743 5743 5743 5741 5741 5741 5740 5740 5737 5735 5733 5731 5729 5727 5725 5723
5705 5710 5718 5722 5723 5722 5722 5720 5722 5724 5726 5725 5722 5723 5723 5723 5723 5723 5724 5725 5727 5727 5726 5727 5729 5731 5731 5732 5733 5732 5731 5731 5731 5730 5730 5728 5726 5726 5724 5721 5719 5719 5717 5714
5695 5698 5702 5707 5710 5710 5711 5711 5711 5712 5715 5714 5712 5711 5710 5710 5709 5710 5712 5714 5715 5714 5714 5715 5715 5717 5720 5722 5721 5720 5719 5720 5719 5719 5718 5716 5714 5711 5711 5708 5708 5707 5706 5705
5676 5685 5686 5689 5699 5702 5700 5699 5700 5700 5699 5701 5701 5699 5699 5698 5699 5699 5701 5702 5703 5703 5704 5705 5706 5706 5708 5710 5710 5708 5707 5708 5708 5709 5708 5707 5703 5699 5696 5695 5694 5694 5694 5693
5677 5681 5682 5685 5688 5690 5689 5690 5691 5690 5690 5689 5689 5689 5688 5687 5688 5689 5689 5689 5690 5691 5693 5694 5694 5694 5696 5697 5698 5697 5696 5697 5696 5697 5697 5695 5693 5691 5687 5683 5681 5680 5679 5678
5670 5670 5667 5670 5674 5677 5677 5678 5679 5679 5679 5678 5678 5677 5677 5677 5677 5677 5677 5678 5679 5680 5680 5681 5682 5682 5684 5686 5686 5686 5686 5686 5685 5685 5685 5684 5683 5682 5680 5677 5672 5669 5665 5663
5659 5659 5657 5660 5663 5665 5665 5665 5664 5664 5664 5664 5665 5665 5664 5664 5664 5664 5666 5668 5668 5667 5667 5668 5668 5669 5672 5673 5673 5673 5673 5673 5674 5674 5674 5673 5672 5671 5669 5668 5664 5660 5656 5652
5649 5648 5650 5650 5651 5652 5653 5652 5652 5652 5653 5652 5653 5653 5654 5653 5653 5653 5654 5654 5653 5652 5654 5655 5656 5657 5659 5659 5659 5660 5660 5660 5661 5661 5662 5661 5660 5659 5657 5656 5653 5649 5646 5642
5637 5636 5638 5638 5640 5641 5643 5643 5643 5643 5643 5643 5643 5644 5643 5642 5641 5640 5641 5642 5642 5642 5643 5644 5644 5645 5647 5647 5647 5648 5649 5649 5648 5650 5650 5650 5648 5646 5645 5643 5641 5638 5634 5631
5635 5634 5634 5633 5633 5634 5634 5634 5634 5634 5634 5635 5635 5633 5632 5630 5628 5628 5629 5630 5631 5632 5632 5632 5633 5633 5634 5635 5636 5636 5636 5638 5638 5638 5638 5637 5636 5634 5633 5631 5628 5625 5622 5619
5629 5629 5629 5628 5627 5626 5625 5625 5626 5626 5626 5626 5624 5622 5621 5619 5618 5618 5619 5619 5619 5618 5619 5620 5619 5621 5622 5623 5623 5624 5626 5627 5627 5627 5627 5624 5624 5623 5621 5619 5617 5613 5610 5607
5622 5623 5621 5620 5619 5618 5616 5617 5617 5616 5616 5616 5614 5612 5610 5610 5609 5609 5609 5608 5607 5608 5609 5609 5610 5611 5612 5613 5613 5615 5616 5617 5617 5616 5616 5614 5613 5611 5609 5607 5605 5602 5599 5596
5615 5614 5612 5611 5610 5610 5609 5609 5608 5606 5606 5606 5605 5604 5603 5602 5601 5600 5599 5598 5597 5598 5600 5600 5600 5601 5602 5602 5604 5607 5608 5607 5607 5606 5605 5604 5602 5601 5598 5595 5592 5589 5586 5584
5608 5607 5605 5604 5603 5601 5601 5601 5601 5600 5599 5599 5598 5597 5596 5594 5593 5592 5590 5589 5589 5588 5591 5592 5592 5591 5592 5593 5597 5598 5598 5598 5597 5596 5595 5594 5592 5590 5587 5584 5581 5578 5576 5573
5601 5600 5598 5597 5595 5594 5594 5594 5594 5593 5592 5592 5591 5589 5588 5587 5586 5584 5582 5582 5583 5581 5582 5582 5581 5582 5582 5586 5588 5588 5588 5587 5586 5586 5585 5584 5583 5581 5578 5575 5572 5570 5566 5564
5594 5593 5591 5590 5590 5589 5587 5587 5587 5587 5587 5586 5585 5583 5582 5581 5580 5580 5577 5574 5574 5574 5574 5572 5572 5573 5574 5577 5578 5577 5577 5577 5577 5577 5575 5573 5573 5571 5568 5566 5563 5560 5557 5554
5588 5587 5586 5584 5583 5582 5582 5582 5582 5582 5581 5580 5579 5578 5579 5578 5576 5575 5574 5572 5569 5569 5570 5568 5566 5566 5567 5569 5568 5567 5567 5567 5567 5566 5565 5564 5563 5560 5558 5556 5553 5551 5549 5546
5583 5583 5582 5581 5580 5579 5579 5579 5578 5577 5577 5574 5573 5573 5573 5573 5572 5571 5570 5570 5569 5566 5566 5565 5564 5562 5562 5561 5561 5560 5560 5558 5558 5557 5556 5555 5553 5551 5549 5547 5545 5542 5540 5537
5580 5579 5578 5577 5577 5576 5576 5576 5574 5574 5573 5571 5570 5569 5569 5568 5568 5567 5567 5566 5566 5565 5564 5563 5561 5560 5558 5557 5556 5554 5553 5552 5551 5550 5549 5547 5545 5543 5541 5538 5536 5534 5531 5529